Date String (YYYY-MM-DD hh:mm:ss) UTC,Instrument flags,absolute air pressure of the measurement (hPa),sample flow rate (lpm),inlet stack bypass flow (lpm),air temperature of the measurement (°C),ambient temperature measured by the external sensor (°C),aerosol sample conditioner tube jacket temperature (°C),OPC LED temperature (°C),internal box temperature (°C),relative humidity of the measurement (%),span deviation,mass concentration of particles derived from Lorenz-Mie calculation of OPC scattering (μg/m³),mass concentration of particles derived from Lorenz-Mie calculation of OPC scattering (μg/m³),mass concentration of particles derived from Lorenz-Mie calculation of OPC scattering (μg/m³)
DateTimeUTC,F1_M11,P_M11,Q1_M11,Q2_M11,T1_M11,T2_M11,T3_M11,T4_M11,T5_M11,U1_M11,ZSPAN_M11,X0_M11,X2_M11,X1_M11
2023-08-25 12:00:00,SystemResetWarning,0835.9,5.00,000.00,028.3,025.2,000.0,036.8,029.6,33.9,0000.0,0009.39,0005.33,0004.56
2023-08-25 12:01:00,SystemResetWarning,0835.9,4.99,000.00,028.3,025.6,000.0,036.8,029.7,33.5,0000.0,0009.39,0005.30,0004.56
2023-08-25 12:02:00,SystemResetWarning,0835.9,5.00,000.00,028.3,025.9,000.0,036.8,029.8,33.3,0000.0,0009.44,0005.33,0004.58
2023-08-25 12:03:00,SystemResetWarning,0836.0,5.00,000.00,028.3,026.2,000.0,036.8,029.8,33.7,0000.0,0009.51,0005.35,0004.58
2023-08-25 12:04:00,SystemResetWarning,0836.0,5.01,000.00,028.4,026.4,000.0,036.8,029.9,33.7,0000.0,0009.79,0005.37,0004.59
2023-08-25 12:05:00,SystemResetWarning,0836.1,5.00,000.00,028.4,026.6,000.0,036.8,029.9,33.5,0000.0,0010.54,0005.42,0004.60
2023-08-25 12:06:00,SystemResetWarning,0836.1,5.00,000.00,028.4,026.8,000.0,036.8,030.0,33.5,0000.0,0011.12,0005.46,0004.59
2023-08-25 12:07:00,SystemResetWarning,0836.1,5.00,000.00,028.4,027.0,000.0,036.8,030.0,33.3,-000.1,0010.67,0005.47,0004.60
2023-08-25 12:08:00,SystemResetWarning,0836.1,5.00,000.00,028.5,027.1,000.0,036.8,030.0,33.0,-000.2,0010.50,0005.44,0004.62
2023-08-25 12:09:00,SystemResetWarning,0836.1,4.99,000.00,028.5,027.2,000.0,036.9,030.1,32.9,-000.3,0010.54,0005.46,0004.63
2023-08-25 12:10:00,SystemResetWarning,0836.1,4.99,000.00,028.5,027.0,000.0,036.8,030.1,32.8,-000.1,0010.59,0005.48,0004.63
2023-08-25 12:11:00,SystemResetWarning,0836.1,5.00,000.00,028.5,025.4,000.0,036.7,029.8,32.8,0001.0,0010.52,0005.46,0004.62
2023-08-25 12:12:00,SystemResetWarning,0836.2,5.01,000.00,028.4,024.5,000.0,036.6,029.6,33.1,0001.3,0010.39,0005.46,0004.63
2023-08-25 12:13:00,SystemResetWarning,0836.1,5.01,000.00,028.3,024.5,000.0,036.6,029.4,33.3,0000.8,0010.31,0005.43,0004.63
2023-08-25 12:14:00,SystemResetWarning,0836.1,5.00,000.00,028.2,024.8,000.0,036.7,029.4,33.4,0000.5,0010.35,0005.42,0004.65
2023-08-25 12:15:00,SystemResetWarning,0836.1,5.00,000.00,028.2,025.2,000.0,036.7,029.5,33.5,0000.4,0010.29,0005.39,0004.65
2023-08-25 12:16:00,SystemResetWarning,0836.1,5.00,000.00,028.2,025.6,000.0,036.7,029.6,34.1,0000.5,0009.99,0005.37,0004.66
2023-08-25 12:17:00,SystemResetWarning,0836.1,5.00,000.00,028.2,025.9,000.0,036.7,029.7,33.9,0000.4,0009.27,0005.34,0004.66
2023-08-25 12:18:00,SystemResetWarning,0836.1,5.00,000.00,028.2,026.2,000.0,036.7,029.8,33.6,-000.0,0009.31,0005.35,0004.67
2023-08-25 12:19:00,SystemResetWarning,0836.2,5.00,000.00,028.3,026.4,000.0,036.7,029.8,33.5,-000.3,0009.36,0005.34,0004.67
2023-08-25 12:20:00,SystemResetWarning,0836.2,5.00,000.00,028.3,026.6,000.0,036.7,029.9,33.4,-000.4,0009.45,0005.37,0004.66
2023-08-25 12:21:00,SystemResetWarning,0836.2,5.01,000.00,028.3,026.8,000.0,036.7,029.9,33.6,-000.1,0009.40,0005.37,0004.67
2023-08-25 12:22:00,SystemResetWarning,0836.2,5.00,000.00,028.4,027.0,000.0,036.7,030.0,33.6,-000.4,0009.22,0005.35,0004.67
2023-08-25 12:23:00,SystemResetWarning,0836.2,5.00,000.00,028.4,027.1,000.0,036.8,030.0,33.7,-000.1,0009.25,0005.37,0004.67
2023-08-25 12:24:00,SystemResetWarning,0836.2,5.00,000.00,028.4,027.2,000.0,036.8,030.1,33.8,-000.3,0009.34,0005.41,0004.67
2023-08-25 12:25:00,SystemResetWarning,0836.2,4.99,000.00,028.5,027.0,000.0,036.8,030.1,33.7,-000.1,0009.52,0005.47,0004.67
2023-08-25 12:26:00,SystemResetWarning,0836.2,4.99,000.00,028.4,025.3,000.0,036.6,029.8,33.7,-000.6,0009.46,0005.47,0004.66
2023-08-25 12:27:00,SystemResetWarning,0836.1,5.00,000.00,028.3,024.5,000.0,036.5,029.5,33.8,-001.1,0009.59,0005.45,0004.65
2023-08-25 12:28:00,SystemResetWarning,0836.1,5.00,000.00,028.2,024.5,000.0,036.6,029.4,33.8,-001.3,0009.55,0005.43,0004.65
2023-08-25 12:29:00,SystemResetWarning,0836.1,5.01,000.00,028.1,024.8,000.0,036.6,029.4,34.0,-000.4,0009.46,0005.38,0004.65
2023-08-25 12:30:00,SystemResetWarning,0836.2,4.99,000.00,028.1,025.2,000.0,036.6,029.5,33.9,0000.0,0009.88,0005.39,0004.65
2023-08-25 12:31:00,SystemResetWarning,0836.2,5.00,000.00,028.1,025.6,000.0,036.6,029.6,33.8,-000.1,0010.11,0005.37,0004.65
2023-08-25 12:32:00,SystemResetWarning,0836.2,5.00,000.00,028.1,025.9,000.0,036.6,029.7,33.8,-001.1,0010.08,0005.35,0004.65
2023-08-25 12:33:00,SystemResetWarning,0836.2,4.99,000.00,028.2,026.2,000.0,036.6,029.7,33.8,-001.1,0010.14,0005.35,0004.64
2023-08-25 12:34:00,SystemResetWarning,0836.3,5.00,000.00,028.2,026.4,000.0,036.7,029.8,33.7,-000.7,0010.25,0005.34,0004.62
2023-08-25 12:35:00,SystemResetWarning,0836.2,5.00,000.00,028.2,026.6,000.0,036.7,029.8,33.6,-000.3,0010.36,0005.33,0004.62
2023-08-25 12:36:00,SystemResetWarning,0836.3,5.00,000.00,028.3,026.8,000.0,036.7,029.9,33.4,-000.4,0010.25,0005.29,0004.61
2023-08-25 12:37:00,SystemResetWarning,0836.3,5.01,000.00,028.3,026.9,000.0,036.7,029.9,33.3,-000.1,0010.37,0005.33,0004.62
2023-08-25 12:38:00,SystemResetWarning,0836.2,5.01,000.00,028.3,027.1,000.0,036.7,030.0,33.2,-000.1,0010.00,0005.34,0004.63
2023-08-25 12:39:00,SystemResetWarning,0836.3,4.99,000.00,028.4,027.2,000.0,036.7,030.0,33.1,-000.5,0009.81,0005.34,0004.62
2023-08-25 12:40:00,SystemResetWarning,0836.3,4.98,000.00,028.4,026.9,000.0,036.7,030.0,33.0,-001.6,0009.85,0005.39,0004.62
2023-08-25 12:41:00,SystemResetWarning,0836.2,5.01,000.00,028.4,025.2,000.0,036.6,029.7,33.1,-001.3,0009.53,0005.38,0004.61
2023-08-25 12:42:00,SystemResetWarning,0836.3,5.00,000.00,028.3,024.5,000.0,036.5,029.6,33.3,-001.3,0009.22,0005.44,0004.62
2023-08-25 12:43:00,SystemResetWarning,0836.3,5.01,000.00,028.2,024.6,000.0,036.5,029.5,33.4,-001.4,0009.30,0005.46,0004.62
2023-08-25 12:44:00,SystemResetWarning,0836.4,5.00,000.00,028.1,024.9,000.0,036.6,029.5,33.6,-000.8,0009.26,0005.46,0004.64
2023-08-25 12:45:00,SystemResetWarning,0836.4,5.01,000.00,028.1,025.3,000.0,036.6,029.5,33.6,-000.5,0009.39,0005.48,0004.65
2023-08-25 12:46:00,SystemResetWarning,0836.4,5.00,000.00,028.1,025.7,000.0,036.6,029.6,33.6,-000.7,0009.46,0005.48,0004.64
2023-08-25 12:47:00,SystemResetWarning,0836.4,5.00,000.00,028.1,026.0,000.0,036.6,029.7,33.6,0000.2,0009.73,0005.48,0004.63
2023-08-25 12:48:00,SystemResetWarning,0836.4,5.01,000.00,028.2,026.3,000.0,036.6,029.8,33.7,0000.2,0009.63,0005.45,0004.63
2023-08-25 12:49:00,SystemResetWarning,0836.4,5.00,000.00,028.2,026.5,000.0,036.6,029.8,33.7,-000.2,0009.65,0005.44,0004.62
2023-08-25 12:50:00,SystemResetWarning,0836.5,5.00,000.00,028.2,026.7,000.0,036.6,029.9,33.6,0000.0,0009.68,0005.44,0004.63
2023-08-25 12:51:00,SystemResetWarning,0836.5,5.00,000.00,028.3,026.8,000.0,036.7,029.9,33.5,0000.5,0009.68,0005.42,0004.63
2023-08-25 12:52:00,SystemResetWarning,0836.5,5.00,000.00,028.3,027.0,000.0,036.7,029.9,33.5,0000.2,0009.65,0005.40,0004.64
2023-08-25 12:53:00,SystemResetWarning,0836.6,5.00,000.00,028.3,027.1,000.0,036.7,030.0,33.4,0000.0,0009.53,0005.38,0004.63
2023-08-25 12:54:00,SystemResetWarning,0836.6,5.00,000.00,028.4,027.2,000.0,036.7,030.0,33.4,0000.0,0009.60,0005.37,0004.61
2023-08-25 12:55:00,SystemResetWarning,0836.6,5.00,000.00,028.4,027.2,000.0,036.7,030.1,33.3,0000.0,0009.65,0005.35,0004.61
2023-08-25 12:56:00,SystemResetWarning,0836.6,5.00,000.00,028.4,026.1,000.0,036.7,029.9,33.2,0000.0,0009.38,0005.31,0004.61
2023-08-25 12:57:00,SystemResetWarning,0836.6,5.02,000.00,028.3,024.8,000.0,036.5,029.6,33.4,0000.0,0009.02,0005.27,0004.62
2023-08-25 12:58:00,SystemResetWarning,0836.6,5.01,000.00,028.2,024.6,000.0,036.5,029.5,33.6,0000.0,0009.14,0005.27,0004.62
2023-08-25 12:59:00,SystemResetWarning,0836.6,4.99,000.00,028.1,024.8,000.0,036.5,029.5,33.8,-000.1,0009.27,0005.24,0004.62
